GW0378 Weather Reports


Display with metric or nautical units.
time (UTC)temp
F
wind
direction
speed
MPH
gust
MPH
rain 1hr
in
rain 24hr
in
rain mn
in
humidity
%
barometer
mb
20260510030611 60 112 4.0 8.0 0.00 0.00 0.00 45 1019.0
20260510030109 60 121 3.0 6.0 0.00 0.00 0.00 46 1018.8
20260510025606 60 110 5.0 8.0 0.00 0.00 0.00 46 1018.9
20260510025104 60 109 2.0 5.0 0.00 0.00 0.00 45 1018.8
20260510024600 61 99 3.0 6.0 0.00 0.00 0.00 44 1018.8
20260510024056 62 121 3.0 5.0 0.00 0.00 0.00 43 1018.7
20260510023553 62 144 2.0 5.0 0.00 0.00 0.00 42 1018.8
20260510023050 63 106 2.0 3.0 0.00 0.00 0.00 42 1018.5
20260510022549 63 106 3.0 3.0 0.00 0.00 0.00 41 1018.6
20260510022044 64 114 1.0 1.0 0.00 0.00 0.00 40 1018.6
20260510021541 66 198 0.0 0.0 0.00 0.00 0.00 40 1018.3
20260510021038 67 195 0.0 3.0 0.00 0.00 0.00 36 1018.7
20260510020532 68 251 0.0 3.0 0.00 0.00 0.00 33 1018.3
20260510020028 69 270 1.0 3.0 0.00 0.00 0.00 32 1018.7
20260510015524 68 290 2.0 3.0 0.00 0.00 0.00 31 1018.5
20260510015020 69 278 3.0 3.0 0.00 0.00 0.00 31 1018.3
20260510014517 69 278 0.0 3.0 0.00 0.00 0.00 31 1018.3
20260510014014 69 270 2.0 4.0 0.00 0.00 0.00 31 1018.5
20260510013508 71 247 2.0 3.0 0.00 0.00 0.00 30 1018.5
20260510013005 70 279 0.0 2.0 0.00 0.00 0.00 29 1018.1
20260510012459 70 252 2.0 4.0 0.00 0.00 0.00 30 1018.2
20260510011954 71 8 0.0 1.0 0.00 0.00 0.00 28 1018.2
20260510011449 72 315 2.0 2.0 0.00 0.00 0.00 28 1018.5
20260510010946 71 123 2.0 4.0 0.00 0.00 0.00 28 1018.2
20260510010443 72 7 1.0 3.0 0.00 0.00 0.00 30 1018.5
20260510005940 71 315 3.0 3.0 0.00 0.00 0.00 29 1018.0
20260510005436 70 245 6.0 6.0 0.00 0.00 0.00 30 1018.5
20260510004933 71 246 3.0 3.0 0.00 0.00 0.00 29 1018.1
20260510004430 71 274 3.0 5.0 0.00 0.00 0.00 29 1018.3
20260510003929 71 254 3.0 5.0 0.00 0.00 0.00 29 1018.3
20260510003425 72 258 2.0 5.0 0.00 0.00 0.00 29 1018.1
20260510002924 72 236 3.0 4.0 0.00 0.00 0.00 29 1018.2
20260510002422 71 307 3.0 8.0 0.00 0.00 0.00 31 1018.2
20260510001918 71 323 2.0 5.0 0.00 0.00 0.00 31 1018.2
20260510001416 70 285 4.0 8.0 0.00 0.00 0.00 32 1018.5
20260510000913 71 297 0.0 3.0 0.00 0.00 0.00 29 1018.2
20260510000411 71 257 4.0 4.0 0.00 0.00 0.00 30 1018.3
20260509235905 70 328 3.0 5.0 0.00 0.00 0.00 29 1018.5
20260509235403 70 0 2.0 8.0 0.00 0.00 0.00 30 1018.2
20260509234858 71 10 3.0 4.0 0.00 0.00 0.00 31 1018.1
20260509234356 71 283 0.0 9.0 0.00 0.00 0.00 30 1018.2
20260509233854 72 234 3.0 7.0 0.00 0.00 0.00 31 1018.2
20260509233351 71 282 6.0 7.0 0.00 0.00 0.00 31 1018.5
20260509232846 71 79 5.0 5.0 0.00 0.00 0.00 30 1018.3
20260509232345 71 273 3.0 11.0 0.00 0.00 0.00 31 1018.5
20260509231840 70 90 0.0 4.0 0.00 0.00 0.00 30 1018.7
20260509231337 69 94 3.0 4.0 0.00 0.00 0.00 30 1018.3
20260509230835 69 353 6.0 7.0 0.00 0.00 0.00 30 1018.3
20260509230332 70 225 2.0 7.0 0.00 0.00 0.00 30 1018.7
20260509225827 70 347 3.0 5.0 0.00 0.00 0.00 30 1018.8
20260509225324 71 15 0.0 5.0 0.00 0.00 0.00 32 1018.8
20260509224821 70 180 0.0 8.0 0.00 0.00 0.00 30 1019.0
20260509224316 69 16 0.0 3.0 0.00 0.00 0.00 32 1019.0
20260509223813 70 282 9.0 9.0 0.00 0.00 0.00 32 1019.0
20260509223310 69 310 4.0 8.0 0.00 0.00 0.00 35 1019.1
20260509222807 71 270 3.0 9.0 0.00 0.00 0.00 33 1018.9
20260509222306 71 234 0.0 5.0 0.00 0.00 0.00 35 1019.0
20260509221758 69 141 3.0 8.0 0.00 0.00 0.00 32 1019.0
20260509221256 69 46 4.0 5.0 0.00 0.00 0.00 31 1019.0
20260509220751 69 319 0.0 6.0 0.00 0.00 0.00 34 1019.1
20260509220248 69 343 4.0 7.0 0.00 0.00 0.00 33 1019.1
20260509215743 69 225 3.0 8.0 0.00 0.00 0.00 32 1019.1
20260509215240 68 267 4.0 7.0 0.00 0.00 0.00 33 1019.3
20260509214737 69 323 11.0 12.0 0.00 0.00 0.00 34 1019.5
20260509214234 69 243 3.0 7.0 0.00 0.00 0.00 35 1019.2
20260509213731 68 338 3.0 9.0 0.00 0.00 0.00 34 1019.7
20260509213226 68 357 3.0 7.0 0.00 0.00 0.00 34 1019.5
20260509212724 69 347 0.0 4.0 0.00 0.00 0.00 33 1019.6
20260509212221 68 96 2.0 8.0 0.00 0.00 0.00 34 1019.3
20260509211717 69 346 4.0 6.0 0.00 0.00 0.00 34 1019.8
20260509211214 69 306 0.0 3.0 0.00 0.00 0.00 34 1019.6
20260509210710 68 282 2.0 4.0 0.00 0.00 0.00 36 1019.7
20260509210208 68 262 4.0 7.0 0.00 0.00 0.00 36 1019.7
20260509205707 67 252 4.0 8.0 0.00 0.00 0.00 35 1019.5
20260509205207 68 337 3.0 5.0 0.00 0.00 0.00 34 1019.7
20260509204703 67 198 0.0 7.0 0.00 0.00 0.00 35 1019.6
20260509204159 68 314 5.0 7.0 0.00 0.00 0.00 36 1019.7
20260509203655 66 15 6.0 12.0 0.00 0.00 0.00 34 1019.9
20260509203154 66 190 0.0 5.0 0.00 0.00 0.00 34 1019.9
20260509202649 66 292 4.0 12.0 0.00 0.00 0.00 34 1020.0
20260509202144 67 17 6.0 8.0 0.00 0.00 0.00 35 1019.9
20260509201640 67 326 3.0 5.0 0.00 0.00 0.00 35 1019.9
20260509201137 66 258 3.0 8.0 0.00 0.00 0.00 36 1020.1
20260509200633 67 301 5.0 5.0 0.00 0.00 0.00 37 1020.0
20260509200129 67 237 2.0 5.0 0.00 0.00 0.00 39 1019.9
20260509195625 65 60 3.0 11.0 0.00 0.00 0.00 35 1020.0
20260509195120 66 318 3.0 10.0 0.00 0.00 0.00 36 1019.9
20260509194619 65 6 1.0 9.0 0.00 0.00 0.00 35 1020.1
20260509194117 64 203 0.0 11.0 0.00 0.00 0.00 36 1020.1
20260509193612 65 261 0.0 5.0 0.00 0.00 0.00 36 1019.9
20260509193108 65 338 3.0 4.0 0.00 0.00 0.00 36 1020.2
20260509192605 63 180 0.0 7.0 0.00 0.00 0.00 36 1020.2
20260509192100 64 61 5.0 7.0 0.00 0.00 0.00 36 1020.3
20260509191555 64 43 4.0 6.0 0.00 0.00 0.00 37 1020.5
20260509191051 64 290 2.0 5.0 0.00 0.00 0.00 39 1020.3
20260509190548 64 330 5.0 6.0 0.00 0.00 0.00 39 1020.3
20260509190046 64 300 2.0 5.0 0.00 0.00 0.00 37 1020.5
20260509185543 64 268 6.0 6.0 0.00 0.00 0.00 37 1020.7
20260509185039 64 288 2.0 7.0 0.00 0.00 0.00 38 1020.3
20260509184538 64 48 2.0 4.0 0.00 0.00 0.00 36 1020.3
20260509184033 64 180 1.0 4.0 0.00 0.00 0.00 35 1020.6
20260509183529 62 207 3.0 5.0 0.00 0.00 0.00 36 1020.6
20260509183025 62 165 0.0 6.0 0.00 0.00 0.00 37 1020.6
20260509182521 62 315 4.0 8.0 0.00 0.00 0.00 38 1020.6
20260509182019 62 308 5.0 5.0 0.00 0.00 0.00 39 1020.5
20260509181517 62 274 5.0 7.0 0.00 0.00 0.00 39 1020.5
20260509181014 64 296 3.0 3.0 0.00 0.00 0.00 37 1020.6
20260509180509 62 207 3.0 4.0 0.00 0.00 0.00 39 1020.6
20260509180008 63 201 2.0 3.0 0.00 0.00 0.00 38 1020.7
20260509175502 61 245 2.0 3.0 0.00 0.00 0.00 40 1020.7
20260509174959 60 340 3.0 6.0 0.00 0.00 0.00 39 1020.9
20260509174456 61 17 3.0 3.0 0.00 0.00 0.00 38 1020.8
20260509173950 60 226 6.0 7.0 0.00 0.00 0.00 39 1021.0
20260509173445 60 0 3.0 7.0 0.00 0.00 0.00 39 1021.0
20260509172942 60 341 2.0 4.0 0.00 0.00 0.00 41 1020.7
20260509172439 59 285 3.0 7.0 0.00 0.00 0.00 39 1020.9
20260509171934 60 307 5.0 5.0 0.00 0.00 0.00 42 1020.8
20260509171431 60 274 2.0 6.0 0.00 0.00 0.00 39 1020.7
20260509170927 60 337 3.0 6.0 0.00 0.00 0.00 39 1021.0
20260509170423 59 270 0.0 5.0 0.00 0.00 0.00 39 1020.9
20260509165918 58 293 3.0 4.0 0.00 0.00 0.00 43 1020.9
20260509165413 59 300 2.0 6.0 0.00 0.00 0.00 40 1020.9
20260509164908 57 311 3.0 5.0 0.00 0.00 0.00 40 1020.6
20260509164405 58 322 3.0 5.0 0.00 0.00 0.00 42 1021.0
20260509163901 58 90 0.0 2.0 0.00 0.00 0.00 40 1020.9
20260509163358 58 50 4.0 4.0 0.00 0.00 0.00 40 1021.0
20260509162857 57 291 3.0 4.0 0.00 0.00 0.00 40 1020.9
20260509162356 56 90 0.0 5.0 0.00 0.00 0.00 42 1020.8
20260509161852 57 66 2.0 3.0 0.00 0.00 0.00 43 1021.0
20260509161348 56 128 2.0 5.0 0.00 0.00 0.00 43 1021.2
20260509160844 55 99 2.0 4.0 0.00 0.00 0.00 46 1020.9
20260509160340 54 121 2.0 3.0 0.00 0.00 0.00 45 1021.1
20260509155835 54 57 2.0 4.0 0.00 0.00 0.00 47 1021.2
20260509155332 54 33 2.0 3.0 0.00 0.00 0.00 49 1021.0
20260509154828 53 12 1.0 3.0 0.00 0.00 0.00 52 1021.1
20260509154325 54 63 2.0 2.0 0.00 0.00 0.00 51 1020.8
20260509153822 53 41 2.0 3.0 0.00 0.00 0.00 52 1021.1
20260509153319 53 327 2.0 2.0 0.00 0.00 0.00 51 1021.1
20260509152815 55 343 3.0 4.0 0.00 0.00 0.00 50 1021.1
20260509152311 53 294 0.0 4.0 0.00 0.00 0.00 54 1020.8
20260509151809 52 278 0.0 3.0 0.00 0.00 0.00 56 1021.0
20260509151305 53 357 3.0 3.0 0.00 0.00 0.00 56 1020.9
20260509150804 53 29 1.0 3.0 0.00 0.00 0.00 56 1020.8
20260509150301 52 321 2.0 4.0 0.00 0.00 0.00 59 1020.9
20260509145758 51 109 2.0 3.0 0.00 0.00 0.00 58 1020.7
20260509145258 50 45 2.0 3.0 0.00 0.00 0.00 62 1020.8
20260509144754 49 300 0.0 3.0 0.00 0.00 0.00 62 1020.8
20260509144251 49 90 1.0 3.0 0.00 0.00 0.00 62 1020.8
20260509143748 49 315 2.0 3.0 0.00 0.00 0.00 62 1020.8
20260509143246 50 102 3.0 3.0 0.00 0.00 0.00 59 1020.8
20260509142742 48 285 0.0 1.0 0.00 0.00 0.00 63 1020.9
20260509142238 48 0 3.0 3.0 0.00 0.00 0.00 63 1020.8
20260509141734 47 11 1.0 4.0 0.00 0.00 0.00 63 1020.9
20260509141231 47 113 3.0 4.0 0.00 0.00 0.00 63 1020.5
20260509140728 46 244 6.0 6.0 0.00 0.00 0.00 64 1020.9
20260509140225 46 68 3.0 5.0 0.00 0.00 0.00 65 1020.5
20260509135722 47 82 0.0 4.0 0.00 0.00 0.00 63 1020.3
20260509135220 46 274 3.0 5.0 0.00 0.00 0.00 65 1020.3
20260509134717 45 73 4.0 6.0 0.00 0.00 0.00 65 1020.3
20260509134214 46 81 2.0 3.0 0.00 0.00 0.00 63 1020.2
20260509133711 45 35 0.0 4.0 0.00 0.00 0.00 63 1020.3
20260509133208 45 106 2.0 4.0 0.00 0.00 0.00 62 1020.1
20260509132707 45 270 3.0 5.0 0.00 0.00 0.00 64 1019.9
20260509132205 44 164 3.0 5.0 0.00 0.00 0.00 66 1020.1
20260509131701 43 112 3.0 5.0 0.00 0.00 0.00 65 1019.7
20260509131158 42 106 0.0 3.0 0.00 0.00 0.00 67 1019.7
20260509130653 43 108 5.0 5.0 0.00 0.00 0.00 65 1019.8
20260509130150 43 103 4.0 4.0 0.00 0.00 0.00 64 1019.6
20260509125647 43 98 2.0 4.0 0.00 0.00 0.00 64 1019.5
20260509125143 43 117 8.0 9.0 0.00 0.00 0.00 65 1019.5
20260509124640 42 110 5.0 7.0 0.00 0.00 0.00 65 1019.5
20260509124137 42 129 6.0 8.0 0.00 0.00 0.00 67 1019.3
20260509123635 42 110 4.0 5.0 0.00 0.00 0.00 67 1019.3
20260509123132 42 127 5.0 6.0 0.00 0.00 0.00 65 1019.1
20260509122627 42 74 2.0 5.0 0.00 0.00 0.00 64 1018.8
20260509122124 41 117 4.0 5.0 0.00 0.00 0.00 67 1019.0
20260509121621 41 118 3.0 5.0 0.00 0.00 0.00 68 1018.9
20260509121119 41 142 2.0 2.0 0.00 0.00 0.00 67 1018.8
20260509120617 41 83 3.0 3.0 0.00 0.00 0.00 68 1018.7
20260509120115 41 110 3.0 3.0 0.00 0.00 0.00 67 1018.9
20260509115612 42 105 1.0 3.0 0.00 0.00 0.00 67 1018.6
20260509115109 41 115 5.0 6.0 0.00 0.00 0.00 67 1018.7
20260509114607 41 106 2.0 4.0 0.00 0.00 0.00 67 1018.7
20260509114106 42 95 2.0 2.0 0.00 0.00 0.00 66 1018.9
20260509113604 42 120 0.0 2.0 0.00 0.00 0.00 66 1018.7
20260509113101 42 107 0.0 4.0 0.00 0.00 0.00 65 1018.6
20260509112557 43 151 2.0 2.0 0.00 0.00 0.00 63 1018.7
20260509112054 43 286 0.0 0.0 0.00 0.00 0.00 62 1018.6
20260509111552 44 74 0.0 4.0 0.00 0.00 0.00 61 1018.5
20260509111048 43 90 0.0 5.0 0.00 0.00 0.00 61 1018.5
20260509110545 44 85 4.0 5.0 0.00 0.00 0.00 61 1018.6
20260509110042 44 103 3.0 4.0 0.00 0.00 0.00 61 1018.7
20260509105541 44 144 2.0 3.0 0.00 0.00 0.00 59 1018.6
20260509105038 43 141 3.0 3.0 0.00 0.00 0.00 62 1018.5
20260509104535 42 130 3.0 3.0 0.00 0.00 0.00 62 1018.6
20260509104032 42 114 3.0 3.0 0.00 0.00 0.00 62 1018.6
20260509103529 43 117 2.0 3.0 0.00 0.00 0.00 62 1018.5
20260509103028 44 106 4.0 4.0 0.00 0.00 0.00 60 1018.3
20260509102524 44 111 3.0 3.0 0.00 0.00 0.00 58 1018.5
20260509102021 44 132 2.0 3.0 0.00 0.00 0.00 60 1018.5
20260509101517 45 135 2.0 2.0 0.00 0.00 0.00 58 1018.5
20260509101015 45 124 2.0 4.0 0.00 0.00 0.00 57 1018.3
20260509100512 47 124 3.0 4.0 0.00 0.00 0.00 53 1018.5
20260509100009 46 63 2.0 3.0 0.00 0.00 0.00 55 1018.2
20260509095505 46 59 3.0 7.0 0.00 0.00 0.00 55 1018.0
20260509095003 45 105 0.0 3.0 0.00 0.00 0.00 57 1018.1
20260509094459 46 65 3.0 5.0 0.00 0.00 0.00 55 1018.1
20260509093956 47 52 5.0 8.0 0.00 0.00 0.00 53 1018.0
20260509093454 46 57 2.0 4.0 0.00 0.00 0.00 54 1018.0
20260509092951 49 94 2.0 3.0 0.00 0.00 0.00 49 1018.0
20260509092449 51 257 3.0 8.0 0.00 0.00 0.00 46 1017.9
20260509091948 46 99 2.0 5.0 0.00 0.00 0.00 54 1018.0
20260509091444 46 109 5.0 5.0 0.00 0.00 0.00 53 1018.0
20260509090941 46 103 3.0 6.0 0.00 0.00 0.00 54 1018.0
20260509090439 45 106 2.0 3.0 0.00 0.00 0.00 57 1018.0
20260509085936 46 117 3.0 4.0 0.00 0.00 0.00 55 1017.9
20260509085433 46 99 4.0 5.0 0.00 0.00 0.00 53 1017.8
20260509084929 47 97 4.0 5.0 0.00 0.00 0.00 51 1017.8
20260509084426 47 84 3.0 6.0 0.00 0.00 0.00 51 1018.1
20260509083924 47 110 5.0 6.0 0.00 0.00 0.00 52 1017.8
20260509083421 46 120 5.0 8.0 0.00 0.00 0.00 52 1017.8
20260509082917 46 107 4.0 5.0 0.00 0.00 0.00 53 1017.8
20260509082415 47 105 4.0 4.0 0.00 0.00 0.00 52 1017.7
20260509081911 47 123 3.0 4.0 0.00 0.00 0.00 51 1017.7
20260509081409 48 127 3.0 3.0 0.00 0.00 0.00 50 1017.8
20260509080906 48 116 3.0 4.0 0.00 0.00 0.00 49 1017.8
20260509080404 48 107 4.0 4.0 0.00 0.00 0.00 49 1017.7
20260509075902 47 138 3.0 5.0 0.00 0.00 0.00 51 1017.8
20260509075359 48 107 3.0 4.0 0.00 0.00 0.00 49 1017.7
20260509074856 47 71 2.0 4.0 0.00 0.00 0.00 50 1017.4
20260509074354 48 105 3.0 3.0 0.00 0.00 0.00 50 1017.6
20260509073850 48 113 2.0 3.0 0.00 0.00 0.00 49 1017.7
20260509073346 50 138 3.0 3.0 0.00 0.00 0.00 46 1017.5
20260509072843 49 111 3.0 4.0 0.00 0.00 0.00 46 1017.6
20260509072339 49 96 3.0 4.0 0.00 0.00 0.00 47 1017.5
20260509071836 50 107 3.0 3.0 0.00 0.00 0.00 45 1017.4
20260509071333 51 112 2.0 3.0 0.00 0.00 0.00 44 1017.4
20260509070830 52 117 3.0 3.0 0.00 0.00 0.00 42 1017.4
20260509070327 52 143 2.0 2.0 0.00 0.00 0.00 41 1017.4
20260509065823 52 101 2.0 3.0 0.00 0.00 0.00 41 1017.5
20260509065319 54 94 3.0 3.0 0.00 0.00 0.00 39 1017.2
20260509064815 54 188 0.0 3.0 0.00 0.00 0.00 38 1017.2
20260509064313 55 195 1.0 3.0 0.00 0.00 0.00 38 1017.2
20260509063811 55 180 0.0 3.0 0.00 0.00 0.00 38 1017.0
20260509063307 56 295 2.0 4.0 0.00 0.00 0.00 37 1017.0
20260509062804 56 214 3.0 4.0 0.00 0.00 0.00 36 1016.9
20260509062301 56 248 6.0 8.0 0.00 0.00 0.00 35 1017.0
20260509061758 56 233 3.0 5.0 0.00 0.00 0.00 36 1016.9
20260509061256 57 273 3.0 9.0 0.00 0.00 0.00 35 1017.0
20260509060753 56 262 2.0 9.0 0.00 0.00 0.00 35 1017.1
20260509060250 55 172 0.0 3.0 0.00 0.00 0.00 39 1017.1
20260509055745 56 250 2.0 3.0 0.00 0.00 0.00 37 1016.9
20260509055241 56 235 4.0 5.0 0.00 0.00 0.00 37 1017.1
20260509054738 57 280 2.0 5.0 0.00 0.00 0.00 37 1016.7
20260509054235 57 214 3.0 4.0 0.00 0.00 0.00 36 1016.8
20260509053733 58 284 4.0 7.0 0.00 0.00 0.00 35 1016.8
20260509053230 58 246 4.0 14.0 0.00 0.00 0.00 34 1016.7
20260509052728 57 243 4.0 9.0 0.00 0.00 0.00 36 1016.8
20260509052225 57 276 0.0 8.0 0.00 0.00 0.00 37 1016.7
20260509051723 57 248 3.0 3.0 0.00 0.00 0.00 38 1016.7
20260509051221 56 297 0.0 2.0 0.00 0.00 0.00 40 1016.6
20260509050717 57 200 1.0 5.0 0.00 0.00 0.00 38 1016.7
20260509050213 58 244 3.0 5.0 0.00 0.00 0.00 35 1016.7
20260509045711 58 319 4.0 4.0 0.00 0.00 0.00 35 1016.8
20260509045208 59 284 3.0 4.0 0.00 0.00 0.00 35 1016.7
20260509044705 59 275 2.0 6.0 0.00 0.00 0.00 34 1016.6
20260509044203 59 302 3.0 3.0 0.00 0.00 0.00 33 1016.7
20260509043659 60 277 3.0 4.0 0.00 0.00 0.00 33 1016.5
20260509043155 60 249 4.0 7.0 0.00 0.00 0.00 33 1016.5
20260509042651 60 275 4.0 9.0 0.00 0.00 0.00 32 1016.5
20260509042147 60 243 5.0 6.0 0.00 0.00 0.00 32 1016.2
20260509041644 60 276 5.0 5.0 0.00 0.00 0.00 32 1016.2
20260509041141 61 263 4.0 10.0 0.00 0.00 0.00 31 1016.2
20260509040640 60 210 2.0 5.0 0.00 0.00 0.00 32 1016.0
20260509040136 61 236 4.0 5.0 0.00 0.00 0.00 31 1016.4
20260509035633 61 283 0.0 5.0 0.00 0.00 0.00 31 1016.2
20260509035130 62 278 1.0 7.0 0.00 0.00 0.00 30 1016.0
20260509034628 62 248 4.0 13.0 0.00 0.00 0.00 30 1016.0
20260509034125 61 289 8.0 16.0 0.00 0.00 0.00 30 1015.8
20260509033621 61 261 5.0 14.0 0.00 0.00 0.00 29 1015.8
20260509033118 61 243 5.0 10.0 0.00 0.00 0.00 30 1015.6
20260509032616 61 233 9.0 9.0 0.00 0.00 0.00 31 1015.7
20260509032113 62 245 2.0 9.0 0.00 0.00 0.00 31 1015.2
20260509031611 62 241 5.0 13.0 0.00 0.00 0.00 30 1015.5
20260509031108 61 160 1.0 7.0 0.00 0.00 0.00 34 1015.4